Location: *
(45.9500°N, 9.0833°E)
Time: 22:50:31
(UTC+00:00)

Tiros 1 despin weight - Pass Details

Date: 27 June 2021
Orbit: 593 x 642 km, 48.2° (Epoch: 02 August)

Event Time Altitude Azimuth Distance (km) Brightness Sun altitude
Rises 07:34:23 0° 289° (WNW) 2,829 ? 38.4°
Reaches altitude 10° 07:36:43 10° 284° (WNW) 1,924 ? 38.9°
Maximum altitude 07:40:58 49° 209° (SSW) 764 ? 39.6°
Drops below altitude 10° 07:45:14 10° 134° (SE) 1,924 ? 40.3°
Sets 07:47:34 0° 129° (SE) 2,828 ? 40.7°
